Date String (YYYY-MM-DD hh:mm:ss) UTC,Instrument flags,absolute air pressure of the measurement (hPa),sample flow rate (lpm),inlet stack bypass flow (lpm),air temperature of the measurement (°C),ambient temperature measured by the external sensor (°C),aerosol sample conditioner tube jacket temperature (°C),OPC LED temperature (°C),internal box temperature (°C),relative humidity of the measurement (%),span deviation,mass concentration of particles derived from Lorenz-Mie calculation of OPC scattering (μg/m³),mass concentration of particles derived from Lorenz-Mie calculation of OPC scattering (μg/m³),mass concentration of particles derived from Lorenz-Mie calculation of OPC scattering (μg/m³)
DateTimeUTC,F1_M11,P_M11,Q1_M11,Q2_M11,T1_M11,T2_M11,T3_M11,T4_M11,T5_M11,U1_M11,ZSPAN_M11,X2_M11,X0_M11,X1_M11
2024-01-12 19:00:00,SystemResetWarning,0815.6,5.01,000.00,018.8,017.8,000.0,027.3,020.0,6.8,0000.0,0000.65,0001.71,0000.37
2024-01-12 19:01:00,SystemResetWarning,0815.4,5.00,000.00,018.8,017.7,000.0,027.3,020.0,6.9,0000.0,0000.67,0001.80,0000.37
2024-01-12 19:02:00,SystemResetWarning,0815.5,4.99,000.00,018.8,017.6,000.0,027.3,020.0,7.0,0000.0,0000.66,0001.78,0000.37
2024-01-12 19:03:00,SystemResetWarning,0815.5,4.99,000.00,018.8,017.5,000.0,027.3,020.0,6.9,0000.0,0000.65,0001.65,0000.37
2024-01-12 19:04:00,SystemResetWarning,0815.3,5.00,000.00,018.7,017.4,000.0,027.3,020.0,6.8,0000.0,0000.66,0001.23,0000.37
2024-01-12 19:05:00,SystemResetWarning,0815.3,5.01,000.00,018.7,017.4,000.0,027.3,020.0,6.7,0000.0,0000.64,0001.20,0000.37
2024-01-12 19:06:00,SystemResetWarning,0815.3,5.01,000.00,018.7,017.3,000.0,027.3,020.0,6.8,0000.0,0000.65,0001.26,0000.37
2024-01-12 19:07:00,SystemResetWarning,0815.3,4.99,000.00,018.7,017.3,000.0,027.3,020.0,6.9,0000.0,0000.66,0001.35,0000.37
2024-01-12 19:08:00,SystemResetWarning,0815.3,4.99,000.00,018.7,017.2,000.0,027.3,020.0,6.9,0000.0,0000.66,0001.44,0000.38
2024-01-12 19:09:00,SystemResetWarning,0815.3,5.01,000.00,018.7,017.2,000.0,027.3,020.0,7.0,0000.0,0000.62,0001.43,0000.38
2024-01-12 19:10:00,SystemResetWarning,0815.3,5.01,000.00,018.7,017.2,000.0,027.3,020.0,7.1,0000.0,0000.64,0002.62,0000.38
2024-01-12 19:11:00,SystemResetWarning,0815.2,5.00,000.00,018.7,017.2,000.0,027.3,020.0,7.1,0000.0,0000.64,0002.59,0000.39
2024-01-12 19:12:00,SystemResetWarning,0815.3,5.00,000.00,018.7,017.2,000.0,027.3,020.0,7.1,0000.0,0000.62,0003.04,0000.39
2024-01-12 19:13:00,SystemResetWarning,0815.2,5.00,000.00,018.6,017.1,000.0,027.3,020.0,7.2,0000.0,0000.70,0003.35,0000.39
2024-01-12 19:14:00,SystemResetWarning,0815.2,5.00,000.00,018.6,017.1,000.0,027.3,020.0,7.0,0000.0,0000.75,0003.46,0000.40
2024-01-12 19:15:00,SystemResetWarning,0815.1,5.00,000.00,018.6,017.1,000.0,027.3,020.0,6.9,0000.0,0000.77,0003.51,0000.40
2024-01-12 19:16:00,SystemResetWarning,0815.2,5.00,000.00,018.6,017.1,000.0,027.3,020.0,6.9,0000.0,0000.78,0003.54,0000.41
2024-01-12 19:17:00,SystemResetWarning,0815.1,5.00,000.00,018.6,017.1,000.0,027.3,020.0,6.9,0000.0,0000.79,0003.51,0000.42
2024-01-12 19:18:00,SystemResetWarning,0815.1,5.00,000.00,018.6,017.1,000.0,027.3,020.0,7.0,0000.0,0000.81,0003.52,0000.44
2024-01-12 19:19:00,SystemResetWarning,0815.0,5.00,000.00,018.6,017.3,000.0,027.3,020.2,7.0,0000.0,0000.83,0005.60,0000.45
2024-01-12 19:20:00,SystemResetWarning,0815.1,5.01,000.00,018.7,018.2,000.0,027.2,020.6,7.0,0000.0,0000.83,0005.72,0000.46
2024-01-12 19:21:00,SystemResetWarning,0815.1,4.99,000.00,018.9,019.1,000.0,027.2,020.9,7.0,0000.0,0000.85,0004.73,0000.47
2024-01-12 19:22:00,SystemResetWarning,0815.1,5.00,000.00,019.0,019.1,000.0,027.2,020.6,7.1,0000.0,0000.91,0004.74,0000.49
2024-01-12 19:23:00,SystemResetWarning,0815.1,4.99,000.00,019.0,018.9,000.0,027.2,020.3,7.0,0000.0,0000.96,0004.50,0000.51
2024-01-12 19:24:00,SystemResetWarning,0815.1,5.00,000.00,018.9,018.6,000.0,027.2,020.1,6.9,0000.0,0000.91,0004.18,0000.52
2024-01-12 19:25:00,SystemResetWarning,0815.1,5.01,000.00,018.9,018.4,000.0,027.2,020.0,6.9,0000.0,0000.88,0004.10,0000.53
2024-01-12 19:26:00,SystemResetWarning,0815.1,5.00,000.00,018.8,018.1,000.0,027.2,020.0,7.0,0000.0,0000.86,0004.18,0000.54
2024-01-12 19:27:00,SystemResetWarning,0815.2,5.00,000.00,018.8,017.9,000.0,027.3,020.0,7.2,0000.0,0000.87,0004.27,0000.55
2024-01-12 19:28:00,SystemResetWarning,0815.1,5.00,000.00,018.8,017.7,000.0,027.3,020.0,7.3,0000.0,0000.86,0004.25,0000.55
2024-01-12 19:29:00,SystemResetWarning,0815.0,5.00,000.00,018.8,017.6,000.0,027.3,020.0,7.3,0000.0,0000.83,0004.16,0000.55
2024-01-12 19:30:00,SystemResetWarning,0815.0,5.00,000.00,018.7,017.6,000.0,027.3,020.0,7.3,0000.0,0000.87,0002.06,0000.57
2024-01-12 19:31:00,SystemResetWarning,0814.9,5.00,000.00,018.7,017.5,000.0,027.3,020.0,7.4,0000.0,0000.92,0001.99,0000.58
2024-01-12 19:32:00,SystemResetWarning,0815.0,5.00,000.00,018.7,017.4,000.0,027.3,020.0,7.4,0000.0,0000.91,0001.99,0000.57
2024-01-12 19:33:00,SystemResetWarning,0815.0,5.00,000.00,018.7,017.4,000.0,027.3,020.0,7.4,0000.0,0000.89,0001.88,0000.58
2024-01-12 19:34:00,SystemResetWarning,0814.9,5.00,000.00,018.7,017.4,000.0,027.3,020.0,7.4,0000.0,0000.87,0001.72,0000.58
2024-01-12 19:35:00,SystemResetWarning,0814.9,5.02,000.00,018.7,017.3,000.0,027.3,020.0,7.4,0000.0,0000.89,0001.81,0000.58
2024-01-12 19:36:00,SystemResetWarning,0814.8,5.00,000.00,018.7,017.3,000.0,027.3,020.0,7.5,0000.0,0000.93,0001.87,0000.58
2024-01-12 19:37:00,SystemResetWarning,0814.7,4.99,000.00,018.7,017.3,000.0,027.3,020.0,7.5,0000.0,0000.97,0001.87,0000.59
2024-01-12 19:38:00,SystemResetWarning,0814.9,4.99,000.00,018.7,017.2,000.0,027.3,020.0,7.4,0000.0,0000.99,0001.93,0000.59
2024-01-12 19:39:00,SystemResetWarning,0814.9,5.01,000.00,018.7,017.2,000.0,027.3,020.0,7.5,0000.0,0000.99,0002.37,0000.58
2024-01-12 19:40:00,SystemResetWarning,0814.9,5.02,000.00,018.7,017.2,000.0,027.3,020.0,7.7,0000.0,0001.02,0002.97,0000.58
2024-01-12 19:41:00,SystemResetWarning,0814.8,5.00,000.00,018.7,017.1,000.0,027.3,020.0,7.6,0000.0,0001.03,0003.52,0000.57
2024-01-12 19:42:00,SystemResetWarning,0814.8,5.00,000.00,018.6,017.1,000.0,027.3,020.0,7.4,0000.0,0001.01,0003.50,0000.57
2024-01-12 19:43:00,SystemResetWarning,0814.8,4.99,000.00,018.6,017.1,000.0,027.3,020.0,7.3,0000.0,0001.02,0003.49,0000.57
2024-01-12 19:44:00,SystemResetWarning,0814.6,5.00,000.00,018.6,017.1,000.0,027.3,020.0,7.3,0000.0,0001.02,0003.74,0000.56
2024-01-12 19:45:00,SystemResetWarning,0814.8,5.00,000.00,018.6,017.1,000.0,027.2,020.0,7.2,0000.0,0000.99,0004.08,0000.55
2024-01-12 19:46:00,SystemResetWarning,0814.8,5.00,000.00,018.7,017.5,000.0,027.2,020.3,7.3,0000.0,0000.97,0003.99,0000.55
2024-01-12 19:47:00,SystemResetWarning,0814.8,5.02,000.00,018.8,018.5,000.0,027.2,020.8,7.3,0000.0,0000.94,0003.90,0000.55
2024-01-12 19:48:00,SystemResetWarning,0814.9,4.99,000.00,019.0,019.1,000.0,027.2,020.8,7.3,0000.0,0000.92,0004.06,0000.56
2024-01-12 19:49:00,SystemResetWarning,0814.9,4.99,000.00,019.0,019.0,000.0,027.2,020.5,7.2,0000.0,0000.91,0003.92,0000.56
2024-01-12 19:50:00,SystemResetWarning,0814.8,5.00,000.00,019.0,018.8,000.0,027.2,020.3,7.2,0000.0,0000.90,0003.52,0000.56
2024-01-12 19:51:00,SystemResetWarning,0814.8,5.01,000.00,018.9,018.5,000.0,027.2,020.1,7.2,0000.0,0000.91,0004.04,0000.57
2024-01-12 19:52:00,SystemResetWarning,0814.8,5.01,000.00,018.9,018.2,000.0,027.2,020.0,7.2,0000.0,0000.88,0004.86,0000.56
2024-01-12 19:53:00,SystemResetWarning,0814.8,5.00,000.00,018.9,018.0,000.0,027.2,020.0,7.3,0000.0,0000.89,0004.97,0000.54
2024-01-12 19:54:00,SystemResetWarning,0814.8,5.00,000.00,018.8,017.8,000.0,027.2,020.0,7.2,0000.0,0000.93,0005.60,0000.53
2024-01-12 19:55:00,SystemResetWarning,0814.8,5.00,000.00,018.8,017.7,000.0,027.2,020.0,7.3,0000.0,0000.95,0005.66,0000.53
2024-01-12 19:56:00,SystemResetWarning,0814.6,5.01,000.00,018.8,017.6,000.0,027.2,020.0,7.3,0000.0,0000.98,0005.24,0000.52
2024-01-12 19:57:00,SystemResetWarning,0814.6,5.01,000.00,018.8,017.5,000.0,027.3,020.0,7.2,0000.0,0001.04,0005.46,0000.52
2024-01-12 19:58:00,SystemResetWarning,0814.5,5.00,000.00,018.8,017.4,000.0,027.3,020.0,7.2,0000.0,0001.10,0006.33,0000.50
2024-01-12 19:59:00,SystemResetWarning,0814.5,4.99,000.00,018.8,017.3,000.0,027.3,020.0,7.2,0000.0,0001.08,0007.15,0000.48
